User: anonymous   Login
Location: Petruro
(41.0333°N, 14.7833°E)
Time: 19:02:48
(UTC+00:00)
Language:

Cosmos 1553 Rocket - Orbit

View from above orbital plane
View from above orbital plane
View from above satellite
View from above satellite

Ground track
Ground track

The orbit data is extracted from the following two-line orbital elements,

1 14974U 84046B   21271.42548852 -.00000056  00000-0 -71470-4 0  9994
2 14974  82.9345  58.5249 0044004 304.4476 108.2616 13.76939495877227
Epoch (UTC): 28 September 2021 10:12:42
Eccentricity: 0.0044004
inclination: 82.9345°
perigee height: 942 km
apogee height: 1007 km
right ascension of ascending node: 58.5249°
argument of perigee: 304.4476°
revolutions per day: 13.76939495
mean anomaly at epoch: 108.2616°
orbit number at epoch: 87722

The dashed part of the orbit path shows where the satellite is in the earth's shadow,  

DLR